Weather History for Asheville, NC

Change the Weather History Date:

Thursday, September 22, 2011

  Actual Average Record
Temperature  
Mean Temperature 71 °F 64 °F  
Max Temperature 76 °F 75 °F 91 °F (1933)
Min Temperature 65 °F 54 °F 35 °F (1918)
Degree Days  
Heating Degree Days 0 3  
Month to date heating degree days 32 23  
Since 1 July heating degree days 32 25  
Cooling Degree Days 6 2  
Month to date cooling degree days 76 84  
Year to date cooling degree days 1171 841  
Growing Degree Days 20 (Base 50)    
Moisture  
Dew Point 65 °F    
Average Humidity 82    
Maximum Humidity 100    
Minimum Humidity 64    
Precipitation  
Precipitation 0.10 in 0.12 in 2.12 in (2003)
Month to date precipitation 2.90 2.87  
Year to date precipitation 32.38 34.48  
Snow  
Snow 0.00 in 0.00 in 0.00 in ()
Month to date snowfall 0.0 0.0  
Since 1 July snowfall 0.0 0.0  
Since 1 September snowfall 0.0 0.0  
Snow Depth 0.00 in    
Sea Level Pressure  
Sea Level Pressure 30.13 in    
Wind  
Wind Speed 3 mph (SSE)    
Max Wind Speed 8 mph    
Max Gust Speed 13 mph    
Visibility 8 miles    
Events Rain    
T = Trace of Precipitation, MM = Missing Value Source: NWS Daily Summary

Daily Weather History Graph

Daily Weather History Graph

Search for Another Location

Airport:

Trip Planner

Search our weather history database for the weather conditions in past years. The results will help you decide how hot, cold, wet, or windy it might be!

Date:

Astronomy

Sep. 22, 2011 Rise Set
Actual Time 7:17 AM EDT 7:27 PM EDT
Civil Twilight 6:52 AM EDT 7:52 PM EDT
Nautical Twilight 6:22 AM EDT 8:22 PM EDT
Astronomical Twilight 5:52 AM EDT 8:52 PM EDT
Moon 1:48 AM EDT (9/22) 4:09 PM EDT (9/22)
Length of Visible Light 13h 00m
Length of Day
12h 09m
Waning Crescent, 29% of the Moon is Illuminated
Sep 22
Waning Crescent
Sep 27
New
Oct 3
First Quarter
Oct 11
Full
Oct 19
Last Quarter

Hourly Weather History & Observations

Time (EDT) Temp. Dew Point Humidity Pressure Visibility Wind Dir Wind Speed Gust Speed Precip Events Conditions
12:54 AM 66.0 °F 64.9 °F 96% 30.12 in 9.0 mi Calm Calm - N/A   Overcast
1:54 AM 66.0 °F 64.9 °F 96% 30.11 in 10.0 mi Calm Calm - N/A   Overcast
2:20 AM 66.2 °F 64.4 °F 94% 30.18 in 10.0 mi South 3.5 mph - N/A   Overcast
2:27 AM 66.2 °F 64.4 °F 94% 30.18 in 10.0 mi SSE 3.5 mph - N/A   Overcast
2:42 AM 66.2 °F 64.4 °F 94% 30.17 in 10.0 mi South 3.5 mph - N/A   Overcast
2:54 AM 66.0 °F 64.9 °F 96% 30.11 in 10.0 mi South 4.6 mph - N/A   Overcast
3:54 AM 66.0 °F 64.9 °F 96% 30.11 in 8.0 mi Calm Calm - N/A   Overcast
4:29 AM 66.2 °F 64.4 °F 94% 30.16 in 7.0 mi Calm Calm - N/A   Overcast
4:54 AM 66.0 °F 64.0 °F 93% 30.09 in 6.0 mi Calm Calm - N/A   Scattered Clouds
5:01 AM 66.2 °F 64.4 °F 94% 30.16 in 7.0 mi Calm Calm - N/A   Mostly Cloudy
5:35 AM 64.4 °F 64.4 °F 100% 30.17 in 5.0 mi SSE 3.5 mph - N/A   Overcast
5:47 AM 64.4 °F 64.4 °F 100% 30.17 in 1.8 mi Calm Calm - N/A   Overcast
5:54 AM 64.9 °F 64.9 °F 100% 30.10 in 1.0 mi SE 3.5 mph - N/A   Overcast
6:03 AM 64.4 °F 64.4 °F 100% 30.17 in 2.0 mi Calm Calm - N/A   Overcast
6:12 AM 64.4 °F 64.4 °F 100% 30.17 in 5.0 mi Calm Calm - N/A   Overcast
6:54 AM 66.0 °F 64.0 °F 93% 30.11 in 7.0 mi Calm Calm - N/A   Overcast
7:12 AM 66.2 °F 64.4 °F 94% 30.18 in 8.0 mi Calm Calm - N/A   Overcast
7:54 AM 66.0 °F 64.0 °F 93% 30.14 in 4.0 mi Calm Calm - N/A   Overcast
8:54 AM 66.0 °F 64.0 °F 93% 30.15 in 4.0 mi Calm Calm - N/A   Overcast
9:54 AM 66.9 °F 64.9 °F 93% 30.17 in 10.0 mi SSW 3.5 mph - N/A   Overcast
10:54 AM 68.0 °F 64.9 °F 90% 30.17 in 3.0 mi South 3.5 mph - 0.00 in   Overcast
11:54 AM 70.0 °F 66.0 °F 87% 30.17 in 4.0 mi SSW 4.6 mph - N/A   Mostly Cloudy
11:56 AM 69.8 °F 64.4 °F 83% 30.23 in 10.0 mi South 3.5 mph - N/A   Mostly Cloudy
12:54 PM 72.0 °F 64.0 °F 76% 30.15 in 10.0 mi South 4.6 mph - N/A   Mostly Cloudy
1:54 PM 73.0 °F 63.0 °F 71% 30.13 in 10.0 mi Variable 4.6 mph - N/A   Partly Cloudy
2:54 PM 73.0 °F 63.0 °F 71% 30.11 in 10.0 mi Variable 3.5 mph - N/A   Scattered Clouds
3:02 PM 73.4 °F 62.6 °F 69% 30.17 in 10.0 mi East 3.5 mph - N/A   Mostly Cloudy
3:09 PM 73.4 °F 64.4 °F 73% 30.16 in 10.0 mi South 6.9 mph - N/A   Scattered Clouds
3:54 PM 75.0 °F 63.0 °F 66% 30.07 in 10.0 mi Variable 3.5 mph - N/A   Partly Cloudy
4:54 PM 75.0 °F 63.0 °F 66% 30.06 in 10.0 mi SSE 4.6 mph - N/A   Partly Cloudy
5:54 PM 73.0 °F 66.0 °F 79% 30.06 in 10.0 mi Variable 4.6 mph - N/A   Scattered Clouds
6:54 PM 71.1 °F 66.0 °F 84% 30.06 in 10.0 mi SE 5.8 mph - N/A   Mostly Cloudy
7:08 PM 71.6 °F 66.2 °F 83% 30.13 in 10.0 mi SE 4.6 mph - N/A   Mostly Cloudy
7:54 PM 69.1 °F 66.0 °F 90% 30.07 in 10.0 mi South 6.9 mph - N/A   Overcast
8:21 PM 69.8 °F 64.4 °F 83% 30.14 in 10.0 mi SSE 4.6 mph - N/A   Scattered Clouds
8:54 PM 69.1 °F 64.9 °F 87% 30.08 in 10.0 mi SSE 3.5 mph - N/A   Overcast
9:54 PM 68.0 °F 64.9 °F 90% 30.10 in 10.0 mi SSE 4.6 mph - N/A   Overcast
10:54 PM 68.0 °F 64.9 °F 90% 30.10 in 10.0 mi SSE 5.8 mph - N/A   Overcast
11:30 PM 68.0 °F 64.4 °F 88% 30.15 in 10.0 mi Calm Calm - 0.00 in Rain Light Rain
11:41 PM 68.0 °F 64.4 °F 88% 30.15 in 10.0 mi South 3.5 mph - 0.00 in Rain Light Rain
11:54 PM 68.0 °F 64.9 °F 90% 30.08 in 7.0 mi SSE 4.6 mph - 0.01 in Rain Rain